Weather History for Detroit Lakes, MN

Change the Weather History Date:

Sunday, November 3, 2013

  Actual Average Record
Temperature  
Mean Temperature 43 °F -  
Max Temperature 51 °F 41 °F 69 °F (2008)
Min Temperature 35 °F 25 °F -4 °F (1951)
Degree Days  
Heating Degree Days 22    
Moisture  
Dew Point 33 °F    
Average Humidity 69    
Maximum Humidity 93    
Minimum Humidity 47    
Precipitation  
Precipitation 0.00 in - - ()
Sea Level Pressure  
Sea Level Pressure 29.81 in    
Wind  
Wind Speed 15 mph (SSE)    
Max Wind Speed 32 mph    
Max Gust Speed 44 mph    
Visibility 10 miles    
Events      
Averages and records for this station are not official NWS values.
T = Trace of Precipitation, MM = Missing Value Source: NWS Daily Summary

Daily Weather History Graph

Daily Weather History Graph

Search for Another Location

Airport:

Trip Planner

Search our weather history database for the weather conditions in past years. The results will help you decide how hot, cold, wet, or windy it might be!

Date:

Astronomy

Nov. 03, 2013 Rise Set
Actual Time 7:09 AM CST 5:04 PM CST
Civil Twilight 6:37 AM CST 5:36 PM CST
Nautical Twilight 6:01 AM CST 6:12 PM CST
Astronomical Twilight 5:25 AM CST 6:47 PM CST
Moon 7:15 AM CST (11/3) 5:17 PM CST (11/3)
Length of Visible Light 10h 58m
Length of Day
9h 55m
New Moon, 0% of the Moon is Illuminated
Nov 3
New Moon
Nov 9
First Quarter
Nov 17
Full
Nov 25
Last Quarter
Dec 2
New

Hourly Weather History & Observations

Time (CST) Temp. Windchill Dew Point Humidity Pressure Visibility Wind Dir Wind Speed Gust Speed Precip Events Conditions
12:15 AM 35.6 °F 30.7 °F 33.8 °F 93% 30.00 in 10.0 mi SE 5.8 mph - N/A   Clear
12:35 AM 35.6 °F 29.9 °F 33.8 °F 93% 29.99 in 10.0 mi SE 6.9 mph - N/A   Clear
12:55 AM 35.6 °F 30.7 °F 33.8 °F 93% 29.99 in 10.0 mi SE 5.8 mph - N/A   Clear
1:15 AM 35.6 °F 29.9 °F 33.8 °F 93% 29.99 in 10.0 mi SSE 6.9 mph - N/A   Clear
1:35 AM 35.6 °F 30.7 °F 33.8 °F 93% 29.99 in 10.0 mi SSE 5.8 mph - N/A   Clear
1:55 AM 35.6 °F 29.9 °F 33.8 °F 93% 29.99 in 10.0 mi SSE 6.9 mph - N/A   Clear
1:15 AM 35.6 °F 30.7 °F 33.8 °F 93% 29.99 in 10.0 mi SSE 5.8 mph - N/A   Clear
1:35 AM 37.4 °F 31.4 °F 33.8 °F 87% 29.98 in 10.0 mi SSE 8.1 mph - N/A   Clear
1:55 AM 37.4 °F 31.4 °F 33.8 °F 87% 29.98 in 10.0 mi SE 8.1 mph - N/A   Clear
2:15 AM 37.4 °F 30.3 °F 33.8 °F 87% 29.96 in 10.0 mi SE 10.4 mph - N/A   Clear
2:35 AM 37.4 °F 30.3 °F 33.8 °F 87% 29.96 in 10.0 mi SE 10.4 mph - N/A   Clear
2:55 AM 37.4 °F 30.3 °F 33.8 °F 87% 29.95 in 10.0 mi SE 10.4 mph - N/A   Clear
3:15 AM 37.4 °F 29.8 °F 33.8 °F 87% 29.95 in 10.0 mi SE 11.5 mph - N/A   Clear
3:35 AM 37.4 °F 30.3 °F 33.8 °F 87% 29.94 in 10.0 mi SE 10.4 mph - N/A   Clear
3:55 AM 37.4 °F 30.3 °F 33.8 °F 87% 29.93 in 10.0 mi SE 10.4 mph - N/A   Clear
4:15 AM 39.2 °F 31.2 °F 33.8 °F 81% 29.93 in 10.0 mi SE 13.8 mph - N/A   Clear
4:35 AM 39.2 °F 31.2 °F 33.8 °F 81% 29.92 in 10.0 mi SE 13.8 mph - N/A   Clear
4:55 AM 39.2 °F 31.6 °F 33.8 °F 81% 29.92 in 10.0 mi SE 12.7 mph 19.6 mph N/A   Clear
5:15 AM 39.2 °F 31.6 °F 33.8 °F 81% 29.91 in 10.0 mi SE 12.7 mph - N/A   Clear
5:35 AM 39.2 °F 30.8 °F 33.8 °F 81% 29.90 in 10.0 mi SE 15.0 mph - N/A   Clear
5:55 AM 37.4 °F 28.5 °F 33.8 °F 87% 29.90 in 10.0 mi SE 15.0 mph 24.2 mph N/A   Clear
6:15 AM 39.2 °F 31.6 °F 33.8 °F 81% 29.90 in 10.0 mi SE 12.7 mph 18.4 mph N/A   Clear
6:35 AM 37.4 °F 28.2 °F 33.8 °F 87% 29.89 in 10.0 mi SE 16.1 mph - N/A   Clear
6:55 AM 37.4 °F 27.8 °F 33.8 °F 87% 29.88 in 10.0 mi SE 17.3 mph 21.9 mph N/A   Clear
7:15 AM 39.2 °F 30.5 °F 33.8 °F 81% 29.87 in 10.0 mi SE 16.1 mph 24.2 mph N/A   Clear
7:35 AM 37.4 °F 28.2 °F 33.8 °F 87% 29.87 in 10.0 mi SE 16.1 mph 25.3 mph N/A   Clear
7:55 AM 37.4 °F 27.5 °F 33.8 °F 87% 29.86 in 10.0 mi SE 18.4 mph 24.2 mph N/A   Clear
8:15 AM 37.4 °F 27.2 °F 33.8 °F 87% 29.86 in 10.0 mi SE 19.6 mph - N/A   Clear
8:35 AM 39.2 °F 29.6 °F 33.8 °F 81% 29.86 in 10.0 mi SE 19.6 mph 27.6 mph N/A   Clear
8:55 AM 39.2 °F 29.6 °F 33.8 °F 81% 29.86 in 10.0 mi SE 19.6 mph 25.3 mph N/A   Clear
9:15 AM 41.0 °F 32.2 °F 33.8 °F 76% 29.85 in 10.0 mi SE 18.4 mph 24.2 mph N/A   Clear
9:35 AM 41.0 °F 32.2 °F 33.8 °F 76% 29.84 in 10.0 mi SE 18.4 mph 25.3 mph N/A   Clear
9:55 AM 41.0 °F 31.6 °F 33.8 °F 76% 29.83 in 10.0 mi SE 20.7 mph 26.5 mph N/A   Clear
10:15 AM 42.8 °F 34.0 °F 33.8 °F 70% 29.82 in 10.0 mi SE 20.7 mph 26.5 mph N/A   Clear
10:35 AM 42.8 °F 34.0 °F 33.8 °F 70% 29.80 in 10.0 mi SSE 20.7 mph 31.1 mph N/A   Clear
10:55 AM 44.6 °F 35.9 °F 32.0 °F 61% 29.79 in 10.0 mi SSE 23.0 mph 33.4 mph N/A   Clear
11:15 AM 46.4 °F 37.7 °F 33.8 °F 62% 29.76 in 10.0 mi SSE 26.5 mph 36.8 mph N/A   Clear
11:35 AM 46.4 °F 37.5 °F 32.0 °F 57% 29.74 in 10.0 mi SE 27.6 mph 33.4 mph N/A   Clear
11:55 AM 48.2 °F - 33.8 °F 58% 29.73 in 10.0 mi SSE 29.9 mph 39.1 mph N/A   Clear
12:15 PM 48.2 °F - 32.0 °F 54% 29.72 in 10.0 mi SSE 28.8 mph 33.4 mph N/A   Clear
12:35 PM 50.0 °F - 32.0 °F 50% 29.71 in 10.0 mi SSE 28.8 mph 41.4 mph N/A   Clear
12:55 PM 50.0 °F - 32.0 °F 50% 29.71 in 10.0 mi SSE 32.2 mph 41.4 mph N/A   Clear
1:15 PM 50.0 °F - 32.0 °F 50% 29.71 in 10.0 mi SSE 29.9 mph 38.0 mph N/A   Clear
1:35 PM 51.8 °F - 32.0 °F 47% 29.71 in 10.0 mi SSE 26.5 mph 41.4 mph N/A   Clear
1:55 PM 50.0 °F - 32.0 °F 50% 29.70 in 10.0 mi South 27.6 mph 38.0 mph N/A   Clear
2:15 PM 51.8 °F - 32.0 °F 47% 29.69 in 10.0 mi SSE 27.6 mph 43.7 mph N/A   Clear
2:35 PM 51.8 °F - 32.0 °F 47% 29.69 in 10.0 mi SSE 31.1 mph 39.1 mph N/A   Clear
2:55 PM 50.0 °F - 32.0 °F 50% 29.69 in 10.0 mi SSE 27.6 mph 40.3 mph N/A   Clear
3:15 PM 50.0 °F - 32.0 °F 50% 29.69 in 10.0 mi SSE 28.8 mph 38.0 mph N/A   Clear
3:35 PM 50.0 °F - 32.0 °F 50% 29.70 in 10.0 mi SSE 24.2 mph 33.4 mph N/A   Clear
3:55 PM 50.0 °F - 32.0 °F 50% 29.70 in 10.0 mi SSE 21.9 mph 28.8 mph N/A   Clear
4:15 PM 50.0 °F - 32.0 °F 50% 29.69 in 10.0 mi SSE 26.5 mph 36.8 mph N/A   Clear
4:35 PM 50.0 °F - 32.0 °F 50% 29.70 in 10.0 mi SSE 21.9 mph 31.1 mph N/A   Clear
4:55 PM 50.0 °F - 32.0 °F 50% 29.70 in 10.0 mi SSE 23.0 mph 32.2 mph N/A   Clear
5:15 PM 50.0 °F - 32.0 °F 50% 29.70 in 10.0 mi SSE 20.7 mph 28.8 mph N/A   Clear
5:35 PM 50.0 °F - 32.0 °F 50% 29.70 in 10.0 mi SSE 18.4 mph 33.4 mph N/A   Clear
5:55 PM 50.0 °F - 32.0 °F 50% 29.71 in 10.0 mi SSE 20.7 mph 29.9 mph N/A   Clear
6:15 PM 50.0 °F - 32.0 °F 50% 29.71 in 10.0 mi SSE 21.9 mph 28.8 mph N/A   Clear
6:35 PM 48.2 °F - 32.0 °F 54% 29.71 in 10.0 mi SSE 17.3 mph 27.6 mph N/A   Clear
6:55 PM 48.2 °F - 32.0 °F 54% 29.71 in 10.0 mi SSE 20.7 mph 29.9 mph N/A   Clear
7:15 PM 46.4 °F 38.7 °F 32.0 °F 57% 29.71 in 10.0 mi SSE 20.7 mph 27.6 mph N/A   Clear
7:35 PM 48.2 °F - 32.0 °F 54% 29.72 in 10.0 mi SSE 24.2 mph 31.1 mph N/A   Scattered Clouds
7:55 PM 48.2 °F - 32.0 °F 54% 29.71 in 10.0 mi SSE 20.7 mph 27.6 mph N/A   Mostly Cloudy
8:15 PM 48.2 °F - 32.0 °F 54% 29.71 in 10.0 mi SSE 20.7 mph 31.1 mph N/A   Overcast
8:35 PM 48.2 °F - 32.0 °F 54% 29.70 in 10.0 mi SSE 20.7 mph 31.1 mph N/A   Mostly Cloudy
8:55 PM 46.4 °F 39.2 °F 32.0 °F 57% 29.71 in 10.0 mi SSE 18.4 mph 26.5 mph N/A   Mostly Cloudy
9:15 PM 46.4 °F 39.2 °F 32.0 °F 57% 29.71 in 10.0 mi SSE 18.4 mph 26.5 mph N/A   Overcast
9:35 PM 46.4 °F 38.7 °F 32.0 °F 57% 29.71 in 10.0 mi SSE 20.7 mph 24.2 mph N/A   Overcast
9:55 PM 46.4 °F 38.7 °F 32.0 °F 57% 29.71 in 10.0 mi SSE 20.7 mph 25.3 mph N/A   Overcast
10:15 PM 46.4 °F 39.5 °F 32.0 °F 57% 29.71 in 10.0 mi SSE 17.3 mph 26.5 mph N/A   Overcast
10:35 PM 46.4 °F 39.8 °F 33.8 °F 62% 29.71 in 10.0 mi SSE 16.1 mph 23.0 mph N/A   Mostly Cloudy
10:55 PM 46.4 °F 39.2 °F 33.8 °F 62% 29.70 in 10.0 mi South 18.4 mph 27.6 mph N/A   Mostly Cloudy